sat.trackr.live / text

‹ back to catalog

STARLINK-2330

NORAD 47874 · 2021-021Q

PAYLOAD ACTIVE UNKNOWN

§ Identity

Operator
Country
US
Launch date
2021-03-14
Launch site
AFETR
Launch vehicle
Mass (kg)
RCS (m²)

Purposes: comms

External: N2YO · Heavens-Above · Gunter

§ Orbital elements

Epoch: 2026-09-20T01:25:52.807872Z

Period
93.12 min
Inclination
53.1406°
Eccentricity
0.0001991
Mean motion
15.46326226 rev/d
Perigee alt
426.1 km
Apogee alt
428.8 km
Semi-major
6,805.6 km
B*
1.0260e-3
RAAN
23.4000°
Arg perigee
31.0546°
Mean anomaly
329.0579°
Rev number
30,686

§ Raw data

STARLINK-23301 47874U 21021Q   26263.05963898  .00051342  00000+0  10260-2 0  99982 47874  53.1406  23.4000 0001991  31.0546 329.0579 15.46326226306864

JSON: /api/v1/satellites/47874 · /tle

For live sub-satellite position, see the globe view (requires WebGL).

§ Visibility from observer

Set your observer location to see the next 7 days of passes ≥ 10°. The values pass through the URL so the page stays shareable.

No JS? Fill the form by hand. The geolocation button needs JavaScript.